When you browse on this site, cookies collect data to enhance your experience and personalize the content and advertising you see.
Visit our Privacy Policy to learn more. By continuing to use the site, you agree to this use of cookies and data.
  • In Hungary
  • List of Countries
  • For 7 days
  • Water Temperature
  • Satellite Maps
  • Weather Map
  • News
  • Weather Widgets
  • user-avatar
    Login

    Hourly Weather Petrovac

    Today, 13 December, Thursday

    Time Temperature Precipitation Wind Pressure Humidity
    00:00 +2°C° 0 mm 1 mps 748 mmHg 87%
    01:00 0°C° 0 mm 0 mps 748 mmHg 87%
    02:00 0°C° 0 mm 0 mps 748 mmHg 87%
    03:00 0°C° 0 mm 0 mps 748 mmHg 88%
    04:00 0°C° 0 mm 0 mps 748 mmHg 89%
    05:00 0°C° 0 mm 0 mps 748 mmHg 89%
    06:00 0°C° 0 mm 0 mps 748 mmHg 89%
    07:00 -1°C° 0 mm 0 mps 748 mmHg 90%
    08:00 +1°C° 0 mm 0 mps 748 mmHg 84%
    09:00 +3°C° 0 mm 1 mps 747 mmHg 77%
    10:00 +4°C° 0 mm 1 mps 747 mmHg 71%
    11:00 +4°C° 0 mm 1 mps 747 mmHg 68%
    12:00 +5°C° 0 mm 1 mps 747 mmHg 64%
    13:00 +5°C° 0 mm 1 mps 747 mmHg 60%
    14:00 +4°C° 0 mm 1 mps 747 mmHg 64%
    15:00 +3°C° 0 mm 1 mps 746 mmHg 68%
    16:00 +2°C° 0 mm 1 mps 746 mmHg 72%
    17:00 +2°C° 0 mm 1 mps 746 mmHg 73%
    18:00 +2°C° 0 mm 1 mps 746 mmHg 73%
    19:00 +2°C° 0 mm 1 mps 746 mmHg 74%
    20:00 +2°C° 0 mm 1 mps 746 mmHg 73%
    21:00 +2°C° 0 mm 1 mps 746 mmHg 72%
    22:00 +2°C° 0 mm 1 mps 746 mmHg 71%
    23:00 +2°C° 0 mm 1 mps 746 mmHg 70%

    Tomorrow, 14 December, Friday

    Time Temperature Precipitation Wind Pressure Humidity
    00:00 +2°C° 0 mm 1 mps 746 mmHg 70%
    01:00 +2°C° 0 mm 1 mps 746 mmHg 69%
    02:00 +2°C° 0 mm 1 mps 746 mmHg 70%
    03:00 +2°C° 0 mm 1 mps 746 mmHg 70%
    04:00 +2°C° 0 mm 1 mps 746 mmHg 70%
    05:00 +2°C° 0 mm 1 mps 746 mmHg 71%
    06:00 +2°C° 0 mm 1 mps 746 mmHg 71%
    07:00 +2°C° 0 mm 1 mps 747 mmHg 72%
    08:00 +1°C° 0 mm 2 mps 747 mmHg 69%
    09:00 +2°C° 0 mm 2 mps 747 mmHg 67%
    10:00 +3°C° 0 mm 2 mps 747 mmHg 64%
    11:00 +3°C° 0.1 mm 2 mps 747 mmHg 65%
    12:00 +3°C° 0.1 mm 3 mps 747 mmHg 66%
    13:00 +3°C° 0.1 mm 3 mps 747 mmHg 66%
    14:00 +2°C° 0.4 mm 3 mps 746 mmHg 71%
    15:00 +1°C° 0.4 mm 3 mps 746 mmHg 75%
    16:00 +1°C° 0.4 mm 3 mps 746 mmHg 80%
    17:00 0°C° 0.8 mm 3 mps 746 mmHg 82%
    18:00 0°C° 0.8 mm 3 mps 747 mmHg 85%
    19:00 -1°C° 0.8 mm 4 mps 747 mmHg 88%
    20:00 -1°C° 0.7 mm 4 mps 747 mmHg 88%
    21:00 -1°C° 0.7 mm 4 mps 747 mmHg 89%
    22:00 -1°C° 0.7 mm 4 mps 747 mmHg 90%
    23:00 -1°C° 0.9 mm 4 mps 746 mmHg 90%

    Day after tomorrow, 15 December, Saturday

    Time Temperature Precipitation Wind Pressure Humidity
    00:00 0°C° 0.9 mm 3 mps 746 mmHg 91%
    01:00 0°C° 0.9 mm 3 mps 746 mmHg 91%
    02:00 0°C° 0.9 mm 3 mps 745 mmHg 92%
    03:00 0°C° 0.9 mm 3 mps 745 mmHg 92%
    04:00 0°C° 0.9 mm 3 mps 745 mmHg 92%
    05:00 0°C° 1 mm 3 mps 745 mmHg 93%
    06:00 0°C° 1 mm 3 mps 745 mmHg 93%
    07:00 +1°C° 1 mm 2 mps 745 mmHg 93%
    08:00 +1°C° 0.8 mm 2 mps 745 mmHg 94%
    09:00 +1°C° 0.8 mm 2 mps 745 mmHg 94%
    10:00 +1°C° 0.8 mm 2 mps 745 mmHg 95%
    11:00 +1°C° 0.9 mm 2 mps 745 mmHg 95%
    12:00 +1°C° 0.9 mm 2 mps 745 mmHg 96%
    13:00 +1°C° 0.9 mm 2 mps 745 mmHg 97%
    14:00 +1°C° 0.9 mm 2 mps 745 mmHg 97%
    15:00 +1°C° 0.9 mm 2 mps 745 mmHg 97%
    16:00 +1°C° 0.9 mm 2 mps 745 mmHg 97%
    17:00 -1°C° 0.9 mm 2 mps 745 mmHg 97%
    18:00 -1°C° 0.9 mm 2 mps 745 mmHg 97%
    19:00 -1°C° 0.9 mm 2 mps 745 mmHg 97%
    20:00 -1°C° 0.9 mm 2 mps 745 mmHg 97%
    21:00 -1°C° 0.9 mm 2 mps 745 mmHg 97%
    22:00 -1°C° 0.9 mm 2 mps 746 mmHg 97%
    23:00 -1°C° 0.6 mm 2 mps 746 mmHg 96%

    16 December, Sunday

    Time Temperature Precipitation Wind Pressure Humidity
    00:00 -2°C° 0.6 mm 2 mps 746 mmHg 96%
    01:00 -2°C° 0.6 mm 2 mps 746 mmHg 96%
    02:00 -2°C° 0.3 mm 2 mps 746 mmHg 96%
    03:00 -2°C° 0.3 mm 3 mps 746 mmHg 96%
    04:00 -2°C° 0.3 mm 3 mps 746 mmHg 95%
    05:00 -2°C° 0.2 mm 3 mps 746 mmHg 95%
    06:00 -2°C° 0.2 mm 2 mps 746 mmHg 95%
    07:00 -3°C° 0.2 mm 2 mps 747 mmHg 95%
    08:00 -2°C° 0.1 mm 3 mps 747 mmHg 94%
    09:00 -2°C° 0.1 mm 3 mps 748 mmHg 94%
    10:00 -2°C° 0.1 mm 3 mps 748 mmHg 93%
    11:00 -2°C° 0 mm 3 mps 748 mmHg 92%
    12:00 -1°C° 0 mm 3 mps 748 mmHg 92%
    13:00 -1°C° 0 mm 3 mps 748 mmHg 92%
    14:00 -2°C° 0 mm 2 mps 748 mmHg 92%
    15:00 -3°C° 0 mm 2 mps 748 mmHg 93%
    16:00 -1°C° 0 mm 1 mps 748 mmHg 93%
    17:00 -2°C° 0 mm 1 mps 748 mmHg 93%
    18:00 -3°C° 0 mm 1 mps 748 mmHg 94%
    19:00 -4°C° 0 mm 1 mps 749 mmHg 94%
    20:00 -4°C° 0 mm 1 mps 749 mmHg 94%
    21:00 -6°C° 0 mm 1 mps 749 mmHg 93%
    22:00 -6°C° 0 mm 1 mps 748 mmHg 93%
    23:00 -6°C° 0 mm 1 mps 748 mmHg 92%

    17 December, Monday

    Time Temperature Precipitation Wind Pressure Humidity
    00:00 -6°C° 0 mm 1 mps 748 mmHg 91%
    01:00 -6°C° 0 mm 1 mps 748 mmHg 91%
    02:00 -6°C° 0 mm 1 mps 748 mmHg 90%
    03:00 -6°C° 0 mm 1 mps 748 mmHg 90%
    04:00 -6°C° 0 mm 1 mps 748 mmHg 89%
    05:00 -4°C° 0 mm 1 mps 748 mmHg 88%
    06:00 -4°C° 0 mm 1 mps 748 mmHg 88%
    07:00 -4°C° 0 mm 1 mps 748 mmHg 87%
    08:00 -3°C° 0 mm 1 mps 748 mmHg 87%
    09:00 -2°C° 0 mm 1 mps 748 mmHg 86%
    10:00 0°C° 0 mm 1 mps 748 mmHg 85%
    11:00 0°C° 0 mm 1 mps 748 mmHg 86%
    12:00 0°C° 0 mm 1 mps 748 mmHg 87%
    13:00 +1°C° 0 mm 1 mps 748 mmHg 88%
    14:00 0°C° 0 mm 1 mps 748 mmHg 89%
    15:00 -2°C° 0 mm 1 mps 748 mmHg 91%
    16:00 -3°C° 0 mm 1 mps 749 mmHg 92%
    17:00 -3°C° 0 mm 1 mps 749 mmHg 93%
    18:00 -3°C° 0 mm 1 mps 749 mmHg 93%
    19:00 -3°C° 0 mm 1 mps 750 mmHg 94%
    20:00 -3°C° 0 mm 1 mps 750 mmHg 94%
    21:00 -3°C° 0 mm 1 mps 750 mmHg 93%
    22:00 -3°C° 0 mm 1 mps 751 mmHg 93%
    23:00 -3°C° 0 mm 1 mps 751 mmHg 93%

    18 December, Tuesday

    Time Temperature Precipitation Wind Pressure Humidity
    00:00 -4°C° 0 mm 1 mps 751 mmHg 94%
    01:00 -4°C° 0 mm 1 mps 751 mmHg 94%
    02:00 -4°C° 0 mm 1 mps 751 mmHg 94%
    03:00 -6°C° 0 mm 1 mps 751 mmHg 94%
    04:00 -6°C° 0 mm 1 mps 751 mmHg 94%
    05:00 -6°C° 0 mm 1 mps 751 mmHg 93%
    06:00 -6°C° 0 mm 1 mps 751 mmHg 93%
    07:00 -6°C° 0 mm 1 mps 751 mmHg 93%
    08:00 -4°C° 0 mm 1 mps 751 mmHg 92%
    09:00 -3°C° 0 mm 1 mps 751 mmHg 91%
    10:00 -2°C° 0 mm 1 mps 751 mmHg 89%
    11:00 -2°C° 0 mm 1 mps 751 mmHg 89%
    12:00 -1°C° 0 mm 1 mps 751 mmHg 89%
    13:00 -1°C° 0 mm 1 mps 750 mmHg 88%
    14:00 -1°C° 0 mm 1 mps 750 mmHg 90%
    15:00 -2°C° 0 mm 1 mps 750 mmHg 92%
    16:00 -3°C° 0 mm 1 mps 750 mmHg 93%
    17:00 -3°C° 0 mm 1 mps 750 mmHg 94%
    18:00 -3°C° 0 mm 1 mps 751 mmHg 94%
    19:00 -3°C° 0 mm 1 mps 751 mmHg 94%
    20:00 -4°C° 0 mm 1 mps 751 mmHg 94%
    21:00 -4°C° 0 mm 1 mps 751 mmHg 94%
    22:00 -4°C° 0 mm 1 mps 751 mmHg 94%
    23:00 -4°C° 0 mm 1 mps 751 mmHg 94%
    Show more